Weather in Selishchi

Russia / Republic of Mordovia     54°28′05″N   43°30′32″E
temp.,
°C
wind,
m/s
gust,
m/s
humid.,
%
clouds,
%
prec.,
mm/h
press.,
hPa
HPBL,
m
28 november, sun
sun2800:00−1s91996100 1.9 1010712
03:00+1s81596100 3.1 1008632
06:00+1s71498100 0.5 1008476
09:00+1s612100100 0.5 1008388
12:00+1ssw512100100 0.0 1009355
15:00+1ssw49100100 0.1 1010256
18:00+1ssw49100100 0.1 1011196
21:00+2sw4799100 0.1 1012175
29 november, mon
mon2900:00+1s24100100 0.0 101393
03:00+1sse25100100 0.0 1014113
06:00+1se37100100 0.1 1013160
09:00+2se410100100 0.1 1012252
12:00+2se51299100 0.8 1009312
15:00+2se61399100 8.5 1005421
18:00+3sse61499100 2.6 1003433
21:00+4s61599100 3.6 1000398
30 november, tue
tue3000:00+5se71598100 0.8 996380
03:00+6sse92094100 5.5 990837
06:00+8s112089100 1.6 984842
09:00+9s122085100 1.8 981945
12:00+9ssw142075100 0.3 9811437
15:00+3ssw132381100 0.4 9811748
18:00+2sw142496100 2.4 9831296
21:00+2sw132178100 3.3 9871175
1 december, wed
wed100:00+1sw111870100 0.0 9891167
03:00+1sw8147090 0.0 9901202
06:00−1sw61082100 0.0 991963
09:00−1sw5980100 0.0 992860
12:000wsw5877100 0.1 991919
15:00−1wsw597884 0.1 992867
18:00−2wsw6108285 0.0 993765
21:00−2wsw6118191 0.0 994829
2 december, thu
thu200:00−2wsw61191100 0.1 995881
03:00−3wsw61091100 0.8 996935
06:00−3w5108394 0.3 999871
09:00−5wsw6108274 0.3 1002642
12:00−3wsw587161 0.0 1003699
15:00−3ssw51070100 0.0 1003628
18:00−3s61494100 0.3 1002594
21:000ssw71495100 0.7 1001667